Franklin, PA

3:48 PM EST on December 06, 2019 (GMT -0500)
Venango Regional

Weather History for KFKL - October, 2019

Change the Weather History Date:

Friday, October 11, 2019

  Actual Average Record
Temperature  
Mean Temperature 58 °F -  
Max Temperature 72 °F 62 °F 86 °F (1949)
Min Temperature 46 °F 41 °F 27 °F (1929)
Degree Days  
Heating Degree Days 6    
Growing Degree Days 8 (Base 50)    
Moisture  
Dew Point 45 °F    
Average Humidity 67    
Maximum Humidity 97    
Minimum Humidity 36    
Precipitation  
Precipitation 0.00 in - - ()
Sea Level Pressure  
Sea Level Pressure 30.13 in    
Wind  
Wind Speed 5 mph (ESE)    
Max Wind Speed 12 mph    
Max Gust Speed 18 mph    
Visibility 10 miles    
Events      
Averages and records for this station are not official NWS values.
T = Trace of Precipitation, MM = Missing Value Source: NWS Daily Summary

Daily Weather History Graph

Daily Weather History Graph

Search for Another Location

Airport or City:

Astronomy

Oct. 11, 2019 Rise Set
Actual Time 7:26 AM EDT 6:45 PM EDT
Civil Twilight 6:58 AM EDT 7:12 PM EDT
Nautical Twilight 6:26 AM EDT 7:44 PM EDT
Astronomical Twilight 5:54 AM EDT 8:16 PM EDT
Moon 6:15 PM EDT (10/11) 5:03 AM EDT (10/11)
Length of Visible Light 12h 13m
Length of Day
11h 18m
Waxing Gibbous, 96% of the Moon is Illuminated
Oct 11
Waxing Gibbous
Oct 13
Full
Oct 21
Last Quarter
Oct 27
New
Nov 4
First Quarter

Hourly Weather History & Observations

Time (EDT) Temp. Dew Point Humidity Pressure Visibility Wind Dir Wind Speed Gust Speed Precip Events Conditions
12:56 AM 48.0 °F 46.0 °F 93% 30.21 in 10.0 mi Calm Calm - N/A   Clear
1:56 AM 48.0 °F 46.0 °F 93% 30.21 in 10.0 mi East 3.5 mph - N/A   Clear
2:56 AM 46.9 °F 46.0 °F 97% 30.20 in 10.0 mi ESE 5.8 mph - N/A   Clear
3:56 AM 46.9 °F 45.0 °F 93% 30.19 in 10.0 mi Calm Calm - N/A   Clear
4:56 AM 46.9 °F 45.0 °F 93% - 10.0 mi East 4.6 mph - N/A   Clear
5:56 AM 46.0 °F 45.0 °F 96% 30.19 in 10.0 mi Calm Calm - N/A   Clear
6:56 AM 46.9 °F 45.0 °F 93% 30.19 in 10.0 mi ESE 5.8 mph - N/A   Clear
7:56 AM 48.0 °F 46.0 °F 93% 30.21 in 10.0 mi ESE 6.9 mph - N/A   Clear
8:56 AM 51.1 °F 48.0 °F 89% 30.22 in 10.0 mi ESE 8.1 mph - N/A   Clear
9:56 AM 55.9 °F 50.0 °F 80% 30.21 in 10.0 mi ESE 9.2 mph - N/A   Clear
10:56 AM 62.1 °F 52.0 °F 70% 30.19 in 10.0 mi East 6.9 mph - N/A   Clear
11:56 AM 64.9 °F 50.0 °F 58% 30.18 in 10.0 mi South 10.4 mph - N/A   Clear
12:56 PM 68.0 °F 46.9 °F 47% 30.16 in 10.0 mi SSE 9.2 mph 18.4 mph N/A   Clear
1:56 PM 70.0 °F 48.9 °F 47% 30.12 in 10.0 mi South 9.2 mph - N/A   Clear
2:56 PM 71.1 °F 46.9 °F 42% 30.10 in 10.0 mi SE 11.5 mph - N/A   Clear
4:56 PM 70.0 °F 42.1 °F 36% 30.07 in 10.0 mi ESE 9.2 mph - N/A   Clear
5:56 PM 66.9 °F 43.0 °F 42% 30.06 in 10.0 mi ESE 5.8 mph - N/A   Clear
6:56 PM 61.0 °F 41.0 °F 48% 30.06 in 10.0 mi ESE 5.8 mph - N/A   Clear
7:56 PM 59.0 °F 39.0 °F 48% 30.05 in 10.0 mi SE 6.9 mph - N/A   Clear
8:56 PM 57.0 °F 39.9 °F 53% 30.05 in 10.0 mi ESE 6.9 mph - N/A   Clear
9:56 PM 57.9 °F 37.9 °F 47% 30.04 in 10.0 mi SE 9.2 mph - N/A   Mostly Cloudy
10:56 PM 59.0 °F 37.9 °F 46% 30.00 in 10.0 mi ESE 10.4 mph - N/A   Mostly Cloudy
11:56 PM 60.1 °F 39.0 °F 46% 29.99 in 10.0 mi SE 8.1 mph - N/A   Overcast